Miscellaneous Local Product
Issued by NWS North Platte, NE

Home | Current Version | Previous Version | Graphics & Text | Print | Product List | Glossary On
Versions: 1 2 3 4 5 6 7 8 9 10 11 12 13 14 15 16 17 18 19 20 21 22 23 24 25 26 27 28 29 30 31 32 33 34 35 36 37 38 39 40 41 42 43 44 45 46 47 48 49 50
000
AXUS43 KLBF 031310
MISLBF


WESTERN AND NORTH CENTRAL NEBRASKA HOURLY WEATHER ROUNDUP
NATIONAL WEATHER SERVICE NORTH PLATTE NE
700 AM CST SAT DEC 03 2016

NOTE: "FAIR" INDICATES FEW OR NO CLOUDS BELOW 12,000 FEET WITH NO
SIGNIFICANT WEATHER AND/OR OBSTRUCTIONS TO VISIBILITY.

NOTE: STATIONS NOT REPORTING VARIABLES SUCH AS SKY/WEATHER OR
PRESSURE ARE PROVIDED BY RAWS AND APRS NETWORKS AND ARE NOT UNDER
NATIONAL WEATHER SERVICE QUALITY CONTROL.

...OBSERVATIONS IN AND NEAR THE EASTERN PANHANDLE OF NEBRASKA...

CITY           SKY/WX    TMP DP  RH WIND       PRES   REMARKS
PINE RIDGE     CLEAR     28  23  81 S15       29.97F WCI  16
CHADRON        CLEAR     24  16  71 SW13      29.98F WCI  12
ALLIANCE       CLEAR     23  19  85 S10       30.01F WCI  12
SIDNEY         CLEAR     22  18  85 S13       30.04F WCI  10
CRESCENT LAKE    N/A     27  21  77 SW9         N/A  WCI  18
$$

...OBSERVATIONS IN NORTHERN NEBRASKA AND FAR SOUTHERN SOUTH DAKOTA...

CITY           SKY/WX    TMP DP  RH WIND       PRES   REMARKS
WINNER         CLOUDY    33  26  75 S15       30.09F WCI  23
VALENTINE      CLOUDY    32  26  78 SW6       30.08F WCI  26
THEDFORD       CLOUDY    34  26  73 S7        30.11F WCI  28
AINSWORTH      CLOUDY    32  27  82 S10       30.10F WCI  24
O`NEILL        CLOUDY    28  26  92 S5        30.17S WCI  23
ORD            CLOUDY    27  22  81 CALM      30.18F
BROKEN BOW     CLOUDY    31  27  85 S3        30.15F
VALENTINE NWR    N/A     30  26  84 S6          N/A  WCI  24
BUTTE            N/A     25  23  90 S3          N/A
HALSEY           N/A     50  24  36 S6          N/A
CHAMBERS         N/A     29  27  91 SW3         N/A
EWING            N/A     25  23  93 CALM        N/A
$$

...OBSERVATIONS IN SOUTHWEST NEBRASKA AND FAR NORTHEAST COLORADO...

CITY           SKY/WX    TMP DP  RH WIND       PRES   REMARKS
HOLYOKE        PTSUNNY   27  21  80 SW7       30.09F WCI  19
IMPERIAL       CLOUDY    30  23  75 S8        30.12F WCI  22
OGALLALA       CLOUDY    32  26  76 CALM      30.10F
NORTH PLATTE   CLOUDY    31  25  78 S3        30.14F
MCCOOK         CLOUDY    27  22  81 CALM      30.16F
LEXINGTON      CLOUDY    30  25  82 CALM      30.17F
STAPLETON        N/A     29  25  85 CALM        N/A
GOTHENBURG       N/A     32  26  78 CALM        N/A
CALLAWAY         N/A     28  26  90 S8          N/A  WCI  20
$$

...OBSERVATIONS IN CENTRAL LINCOLN COUNTY AREA...

CITY           SKY/WX    TMP DP  RH WIND       PRES   REMARKS
N.P. AIRPORT   CLOUDY    31  25  78 S3        30.14F
N.P. DOWNTOWN    N/A     32  26  79 S3          N/A
N.P. HILLCREST   N/A     30  25  83 CALM        N/A
$$

...SOME OBSERVATIONS FROM AROUND THE REGION...

CITY           SKY/WX    TMP DP  RH WIND       PRES   REMARKS
LARAMIE        CLOUDY    13   4  67 SW20G30   29.95S WCI  -5
CHEYENNE       CLOUDY    18   6  59 W16       29.96F WCI   3
DENVER         CLOUDY    18  12  77 SW7       30.01S FOG     WCI   9
AKRON          CLEAR     22  16  78 S9        30.03F WCI  12
SCOTTSBLUFF    CLEAR     17  13  84 E5        30.02F WCI  10
RAPID CITY     CLEAR     19  15  84 CALM      29.92F
BISMARCK       CLOUDY    26  25  96 S15       30.02F FOG     WCI  14
PIERRE         CLOUDY    24  22  91 SE9       30.06F WCI  14
SIOUX FALLS    PTCLDY    28  26  92 SE6       30.22F WCI  22
OMAHA          FOG       24  20  84 NW3       30.29F VSB 1/4
GRAND ISLAND   PTCLDY    28  26  92 S3        30.21F
KANSAS CITY    CLOUDY    31  26  82 E7        30.28F WCI  24
WICHITA        CLOUDY    40  32  73 NE7       30.19F
OKLAHOMA CITY  LGT RAIN  45  44  97 NE7       30.17F
DALLAS         RAIN      49  45  86 E10       30.11R FOG
AMARILLO       CLOUDY    33  33 100 N9        30.12R FOG     WCI  25
DODGE CITY     CLOUDY    32  32 100 N6        30.17F FOG     WCI  26
HAYS           LGT SNOW  33  27  78 VRB3      30.21F
GOODLAND       CLOUDY    21  14  74 S9        30.12S WCI  11
$$




USA.gov is the U.S. government's official web portal to all federal, state and local government web resources and services.